User: anonymous   Login
Location: Elstree
(51.6403°N, 0.2969°W)
Time: 22:03:43
(UTC+00:00)
Language:

BREEZE-M DEB (TANK) - Orbit

View from above orbital plane
View from above orbital plane
View from above satellite
View from above satellite

Ground track
Ground track

The orbit data is extracted from the following two-line orbital elements,

1 29271U 06032C   21124.61336712  .00001255  00000-0  28740-3 0  9998
2 29271  49.5279 315.0136 5300460 108.3189 314.4014  5.11315752268436
Epoch (UTC): 04 May 2021 14:43:14
Eccentricity: 0.5300460
inclination: 49.5279°
perigee height: 310 km
apogee height: 15398 km
right ascension of ascending node: 315.0136°
argument of perigee: 108.3189°
revolutions per day: 5.11315752
mean anomaly at epoch: 314.4014°
orbit number at epoch: 26843

The dashed part of the orbit path shows where the satellite is in the earth's shadow,  

DLR